FW6146 Weather Reports


Display with metric or nautical units.
time (UTC)temp
F
wind
direction
speed
MPH
gust
MPH
rain 1hr
in
rain 24hr
in
rain mn
in
humidity
%
barometer
mb
20260902222306 70 0.0 0.0 0.00 0.00 0.00 73 1020.4
20260902221151 70 0.0 0.0 0.00 0.00 0.00 73 1020.0
20260902220151 71 0.0 1.0 0.00 0.00 0.00 70 1020.1
20260902215136 71 0.0 0.0 0.00 0.00 0.00 69 1019.8
20260902214235 71 307 0.0 1.0 0.00 0.00 0.00 67 1019.8
20260902213201 72 0.0 0.0 0.00 0.00 0.00 64 1019.7
20260902212126 72 0.0 0.0 0.00 0.00 0.00 62 1019.6
20260902211145 73 0.0 0.0 0.00 0.00 0.00 57 1019.8
20260902210131 73 0.0 0.0 0.00 0.00 0.00 59 1020.0
20260902205149 73 0.0 2.0 0.00 0.00 0.00 61 1020.2
20260902204135 73 0.0 0.0 0.00 0.00 0.00 61 1020.3
20260902203154 73 0.0 0.0 0.00 0.00 0.00 62 1020.2
20260902202140 73 0.0 1.0 0.00 0.00 0.00 61 1020.4
20260902201159 74 0.0 0.0 0.00 0.00 0.00 62 1020.2
20260902200145 74 287 1.0 2.0 0.00 0.00 0.00 60 1020.1
20260902195151 75 0.0 1.0 0.00 0.00 0.00 60 1020.2
20260902194210 75 302 0.0 1.0 0.00 0.00 0.00 58 1020.4
20260902193156 75 347 1.0 3.0 0.00 0.00 0.00 59 1020.2
20260902192154 75 350 1.0 2.0 0.00 0.00 0.00 59 1020.5
20260902191201 76 297 0.0 1.0 0.00 0.00 0.00 57 1020.6
20260902190220 76 273 2.0 3.0 0.00 0.00 0.00 59 1020.4
20260902185146 76 295 1.0 2.0 0.00 0.00 0.00 59 1020.4
20260902184205 76 348 0.0 2.0 0.00 0.00 0.00 58 1020.6
20260902183149 76 332 1.0 3.0 0.00 0.00 0.00 58 1020.2
20260902182135 76 307 0.0 1.0 0.00 0.00 0.00 59 1020.3
20260902181153 76 348 0.0 1.0 0.00 0.00 0.00 58 1020.4
20260902180137 75 0.0 1.0 0.00 0.00 0.00 61 1020.4
20260902175156 74 345 1.0 2.0 0.00 0.00 0.00 63 1020.4
20260902174140 74 0.0 1.0 0.00 0.00 0.00 63 1020.5
20260902173158 74 296 1.0 2.0 0.00 0.00 0.00 65 1020.6
20260902172143 73 3 0.0 2.0 0.00 0.00 0.00 64 1020.7
20260902171200 73 0.0 0.0 0.00 0.00 0.00 63 1020.9
20260902170145 74 290 0.0 1.0 0.00 0.00 0.00 62 1020.9
20260902165203 73 341 0.0 1.0 0.00 0.00 0.00 65 1021.0
20260902164149 73 305 1.0 3.0 0.00 0.00 0.00 66 1021.1
20260902163247 72 346 1.0 2.0 0.00 0.00 0.00 69 1021.1
20260902162152 72 294 0.0 3.0 0.00 0.00 0.00 72 1021.0
20260902161211 71 336 0.0 1.0 0.00 0.00 0.00 74 1021.0
20260902160156 71 0.0 1.0 0.00 0.00 0.00 73 1021.2
20260902155141 71 0.0 0.0 0.00 0.00 0.00 76 1021.5
20260902154159 71 0.0 0.0 0.00 0.00 0.00 75 1021.6
20260902153145 70 0.0 0.0 0.00 0.00 0.00 73 1021.6
20260902152203 71 294 1.0 3.0 0.00 0.00 0.00 74 1021.6
20260902151149 71 281 1.0 2.0 0.00 0.00 0.00 73 1021.8
20260902150228 70 297 0.0 2.0 0.00 0.00 0.00 75 1021.8
20260902145154 69 0.0 0.0 0.00 0.00 0.00 79 1021.7
20260902144213 69 301 0.0 1.0 0.00 0.00 0.00 79 1021.6
20260902143159 68 296 0.0 2.0 0.00 0.00 0.00 80 1021.5
20260902142146 68 329 0.0 1.0 0.00 0.00 0.00 81 1021.3
20260902141205 68 0.0 1.0 0.00 0.00 0.00 83 1021.4
20260902140211 67 0.0 0.0 0.00 0.00 0.00 83 1021.2
20260902135211 67 311 0.0 1.0 0.00 0.00 0.00 87 1021.1
20260902134157 66 0.0 0.0 0.00 0.00 0.00 88 1020.8
20260902133216 66 0.0 0.0 0.00 0.00 0.00 91 1020.9
20260902132202 65 0.0 0.0 0.00 0.00 0.00 94 1020.7
20260902131148 65 0.0 0.0 0.00 0.00 0.00 96 1021.0
20260902130228 65 0.0 0.0 0.00 0.00 0.00 97 1020.9
20260902125153 65 0.0 0.0 0.00 0.00 0.00 98 1021.0
20260902124213 65 0.0 0.0 0.00 0.00 0.00 98 1021.2
20260902123259 64 0.0 0.0 0.00 0.00 0.00 98 1021.1
20260902122218 64 0.0 0.0 0.00 0.00 0.00 98 1021.2
20260902121204 63 0.0 0.0 0.00 0.00 0.00 98 1021.4
20260902120151 63 0.0 0.0 0.00 0.00 0.00 98 1021.5
20260902115210 62 0.0 0.0 0.00 0.00 0.00 98 1021.5
20260902114156 62 0.0 0.0 0.00 0.00 0.00 98 1021.5
20260902113215 62 0.0 0.0 0.00 0.00 0.00 98 1021.3
20260902112201 61 0.0 0.0 0.00 0.00 0.00 98 1021.3
20260902111221 61 0.0 0.0 0.00 0.00 0.00 98 1021.4
20260902110207 61 0.0 0.0 0.00 0.00 0.00 98 1021.0
20260902105153 61 0.0 0.0 0.00 0.00 0.00 98 1020.7
20260902104213 60 0.0 0.0 0.00 0.00 0.00 98 1020.9
20260902103159 60 0.0 0.0 0.00 0.00 0.00 98 1020.8
20260902102238 60 0.0 0.0 0.00 0.00 0.00 98 1020.6
20260902101204 60 0.0 0.0 0.00 0.00 0.00 98 1020.4
20260902100244 60 0.0 0.0 0.00 0.00 0.00 98 1020.3
20260902095229 60 0.0 0.0 0.00 0.00 0.00 98 1020.2
20260902094156 60 0.0 0.0 0.00 0.00 0.00 98 1020.1
20260902093216 60 0.0 0.0 0.00 0.00 0.00 98 1020.0
20260902092202 60 0.0 0.0 0.00 0.00 0.00 98 1020.1
20260902091221 60 0.0 0.0 0.00 0.00 0.00 98 1020.4
20260902090207 60 0.0 0.0 0.00 0.00 0.00 98 1020.1
20260902085227 60 0.0 0.0 0.00 0.00 0.00 98 1019.9
20260902084213 61 0.0 0.0 0.00 0.00 0.00 98 1020.0
20260902083159 61 0.0 0.0 0.00 0.00 0.00 97 1020.0
20260902082218 61 0.0 0.0 0.00 0.00 0.00 98 1019.9
20260902081204 61 0.0 0.0 0.00 0.00 0.00 97 1020.0
20260902080223 62 0.0 0.0 0.00 0.00 0.00 98 1019.9
20260902075209 62 0.0 0.0 0.00 0.00 0.00 98 1020.1
20260902074229 62 0.0 0.0 0.00 0.00 0.00 98 1020.0
20260902073214 62 0.0 0.0 0.00 0.00 0.00 98 1020.0
20260902072200 62 0.0 0.0 0.00 0.00 0.00 98 1019.7
20260902071113 62 0.0 0.0 0.00 0.00 0.00 98 1019.8
20260902070129 62 0.0 0.0 0.00 0.00 0.00 97 1019.5
20260902065115 61 0.0 0.0 0.00 0.00 0.00 97 1019.8
20260902064122 61 0.0 0.0 0.00 0.00 0.00 97 1019.9
20260902063121 61 0.0 0.0 0.00 0.00 0.00 97 1020.0
20260902062127 61 0.0 0.0 0.00 0.00 0.00 97 1019.8
20260902061207 61 0.0 0.0 0.00 0.00 0.00 97 1019.5
20260902060113 61 0.0 0.0 0.00 0.00 0.00 97 1019.8
20260902055132 61 0.0 0.0 0.00 0.00 0.00 97 1019.9
20260902054118 61 0.0 0.0 0.00 0.00 0.00 97 1019.9
20260902053138 61 0.0 0.0 0.00 0.00 0.00 97 1019.6
20260902052123 61 0.0 0.0 0.00 0.00 0.00 97 1019.6
20260902051109 61 0.0 0.0 0.00 0.00 0.00 97 1019.8
20260902050221 61 0.0 0.0 0.00 0.00 0.00 97 1019.7
20260902045114 61 0.0 0.0 0.00 0.00 0.00 97 1019.7
20260902044133 61 0.0 0.0 0.00 0.00 0.00 97 1019.6
20260902043119 61 0.0 0.0 0.00 0.00 0.00 97 1019.3
20260902042138 61 0.0 0.0 0.00 0.00 0.00 97 1019.3
20260902041145 61 0.0 0.0 0.00 0.00 0.00 97 1018.6
20260902040237 61 0.0 0.0 0.00 0.00 0.00 97 1018.7
20260902035129 61 0.0 0.0 0.00 0.00 0.00 97 1018.8
20260902034116 61 0.0 0.0 0.00 0.00 0.00 97 1018.7
20260902033135 62 0.0 0.0 0.00 0.00 0.00 97 1018.6
20260902032121 62 0.0 0.0 0.00 0.00 0.00 97 1018.7
20260902031141 62 0.0 0.0 0.00 0.00 0.00 97 1018.7
20260902030127 62 0.0 0.0 0.00 0.00 0.00 97 1018.7
20260902025113 62 0.0 0.0 0.00 0.00 0.00 97 1018.6
20260902024133 62 0.0 0.0 0.00 0.00 0.00 97 1018.7
20260902023119 62 0.0 0.0 0.00 0.00 0.00 97 1018.8
20260902022138 62 0.0 0.0 0.00 0.00 0.00 97 1018.6
20260902021145 61 0.0 0.0 0.00 0.00 0.00 97 1018.6
20260902020151 62 0.0 0.0 0.00 0.00 0.00 96 1018.8
20260902015130 61 0.0 0.0 0.00 0.00 0.00 96 1018.7
20260902014117 61 0.0 0.0 0.00 0.00 0.00 96 1018.8
20260902013136 61 0.0 0.0 0.00 0.00 0.00 96 1018.6
20260902012122 62 0.0 0.0 0.00 0.00 0.00 96 1018.4
20260902011142 62 0.0 0.0 0.00 0.00 0.00 96 1018.6
20260902010127 62 0.0 0.0 0.00 0.00 0.00 96 1018.6
20260902005113 62 0.0 0.0 0.00 0.00 0.00 96 1018.5
20260902004133 62 0.0 0.0 0.00 0.00 0.00 96 1018.2
20260902003119 62 0.0 0.0 0.00 0.00 0.00 95 1018.1
20260902002138 62 0.0 0.0 0.00 0.00 0.00 95 1018.2
20260902001124 62 0.0 0.0 0.00 0.00 0.00 95 1018.1
20260902000143 62 0.0 0.0 0.00 0.00 0.00 95 1018.2
20260901235129 62 0.0 0.0 0.00 0.00 0.00 95 1018.3
20260901234148 62 0.0 0.0 0.00 0.00 0.00 95 1018.1
20260901233134 62 0.0 0.0 0.00 0.00 0.00 95 1018.1
20260901232120 62 0.0 0.0 0.00 0.00 0.00 94 1018.0
20260901231140 62 0.0 0.0 0.00 0.00 0.00 94 1018.0
20260901230126 63 0.0 0.0 0.00 0.00 0.00 94 1017.9
20260901225145 62 0.0 0.0 0.00 0.00 0.00 93 1017.9
20260901224211 62 0.0 0.0 0.00 0.00 0.00 94 1017.9
20260901223151 63 0.0 0.0 0.00 0.00 0.00 93 1017.8